,,Stat6,,Stat2,,Stat8,,Stat9,,Stat10,,Wind1,,Wind1,
time,status,PA1M_AVG,status,PR1M_SUM,status,RH1M_AVG,status,SR1M_AVG,status,TA1M_AVG,status,W1dAve1m,status,W1sAve1m,
2007-07-01, 00:00:00,VALID,917.911,VALID,0,VALID,99.2373,VALID,-0.0339617,VALID,21.0152,VALID,355,VALID,0.0472301,
2007-07-01, 00:01:00,VALID,917.881,VALID,0,VALID,99.2716,VALID,-0.0339617,VALID,20.9825,VALID,354,VALID,0.318359,
2007-07-01, 00:02:00,VALID,917.858,VALID,0,VALID,99.456,VALID,-0.0339617,VALID,20.9892,VALID,355,VALID,0.466211,
2007-07-01, 00:03:00,VALID,917.84,VALID,0,VALID,99.5997,VALID,-0.0339617,VALID,21.0117,VALID,4,VALID,0.297408,
2007-07-01, 00:04:00,VALID,917.821,VALID,0,VALID,99.381,VALID,-0.0169808,VALID,21.0282,VALID,4,VALID,0.415179,
2007-07-01, 00:05:00,VALID,917.805,VALID,0,VALID,99.2475,VALID,-0.0339617,VALID,21.0279,VALID,4,VALID,0.364397,
2007-07-01, 00:06:00,VALID,917.784,VALID,0,VALID,99.1521,VALID,-0.0679233,VALID,21.0182,VALID,4,VALID,0.397294,
2007-07-01, 00:07:00,VALID,917.761,VALID,0,VALID,98.9804,VALID,-0.0679233,VALID,21.0155,VALID,20,VALID,0.599888,
2007-07-01, 00:08:00,VALID,917.764,VALID,0,VALID,98.5926,VALID,-0.0679233,VALID,20.9725,VALID,36,VALID,0.867188,
2007-07-01, 00:09:00,VALID,917.766,VALID,0,VALID,98.3446,VALID,-0.0339617,VALID,20.9435,VALID,34,VALID,0.621199,
2007-07-01, 00:10:00,VALID,917.734,VALID,0,VALID,97.9136,VALID,0,VALID,20.9273,VALID,21,VALID,0.731898,
2007-07-01, 00:11:00,VALID,917.727,VALID,0,VALID,97.6796,VALID,-0.0849042,VALID,20.9084,VALID,343,VALID,0.919779,
2007-07-01, 00:12:00,VALID,917.724,VALID,0,VALID,97.822,VALID,-0.0849042,VALID,20.8594,VALID,350,VALID,0.733422,
2007-07-01, 00:13:00,VALID,917.72,VALID,0,VALID,98.1628,VALID,-0.0339617,VALID,20.8069,VALID,358,VALID,0.525493,
2007-07-01, 00:14:00,VALID,917.704,VALID,0,VALID,98.337,VALID,0,VALID,20.765,VALID,22,VALID,0.799055,
2007-07-01, 00:15:00,VALID,917.702,VALID,0,VALID,98.5481,VALID,0.0339617,VALID,20.7247,VALID,22,VALID,0.922396,
2007-07-01, 00:16:00,VALID,917.708,VALID,0,VALID,98.6854,VALID,0.0679233,VALID,20.6785,VALID,22,VALID,1.26997,
2007-07-01, 00:17:00,VALID,917.708,VALID,0,VALID,98.7999,VALID,0.0679233,VALID,20.569,VALID,27,VALID,1.14789,
2007-07-01, 00:18:00,VALID,917.705,VALID,0,VALID,99.278,VALID,0.0849042,VALID,20.4776,VALID,31,VALID,0.877804,
2007-07-01, 00:19:00,VALID,917.708,VALID,0,VALID,99.5768,VALID,0.0339617,VALID,20.4194,VALID,33,VALID,0.890811,
2007-07-01, 00:20:00,VALID,917.697,VALID,0,VALID,99.8032,VALID,0.0339617,VALID,20.3872,VALID,25,VALID,0.69401,
2007-07-01, 00:21:00,VALID,917.689,VALID,0,VALID,99.8795,VALID,0.0679233,VALID,20.3443,VALID,335,VALID,1.03051,
2007-07-01, 00:22:00,VALID,917.683,VALID,0,VALID,99.9964,VALID,0.0679233,VALID,20.2993,VALID,340,VALID,0.607922,
2007-07-01, 00:23:00,VALID,917.693,VALID,0,VALID,100,VALID,0.0169808,VALID,20.2574,VALID,3,VALID,0.47526,
2007-07-01, 00:24:00,VALID,917.692,VALID,0,VALID,100,VALID,0.0679233,VALID,20.2477,VALID,3,VALID,0.474019,
2007-07-01, 00:25:00,VALID,917.697,VALID,0,VALID,100,VALID,0.0509425,VALID,20.2025,VALID,359,VALID,0.453497,
2007-07-01, 00:26:00,VALID,917.697,VALID,0,VALID,100,VALID,-0.0339617,VALID,20.1778,VALID,348,VALID,0.506284,
2007-07-01, 00:27:00,VALID,917.687,VALID,0,VALID,100,VALID,-0.0169808,VALID,20.1541,VALID,343,VALID,0.496982,
2007-07-01, 00:28:00,VALID,917.68,VALID,0,VALID,100,VALID,-0.0509425,VALID,20.1481,VALID,343,VALID,0.53561,
2007-07-01, 00:29:00,VALID,917.678,VALID,0,VALID,100,VALID,-0.0509425,VALID,20.1321,VALID,343,VALID,0.471168,
2007-07-01, 00:30:00,VALID,917.67,VALID,0,VALID,100,VALID,-0.0339617,VALID,20.1122,VALID,343,VALID,0.362827,
2007-07-01, 00:31:00,VALID,917.663,VALID,0,VALID,100,VALID,-0.0509425,VALID,20.0997,VALID,340,VALID,0.803711,
2007-07-01, 00:32:00,VALID,917.668,VALID,0,VALID,100,VALID,-0.0339617,VALID,20.0702,VALID,8,VALID,0.753906,
2007-07-01, 00:33:00,VALID,917.646,VALID,0,VALID,100,VALID,-0.0849042,VALID,20.051,VALID,29,VALID,0.806593,
2007-07-01, 00:34:00,VALID,917.628,VALID,0,VALID,100,VALID,-0.0339617,VALID,20.0577,VALID,8,VALID,0.718928,
2007-07-01, 00:35:00,VALID,917.619,VALID,0,VALID,100,VALID,-0.0339617,VALID,20.038,VALID,359,VALID,0.592949,
2007-07-01, 00:36:00,VALID,917.624,VALID,0,VALID,100,VALID,-0.0169808,VALID,20.0218,VALID,348,VALID,0.969477,
2007-07-01, 00:37:00,VALID,917.622,VALID,0,VALID,100,VALID,-0.0679233,VALID,20.0086,VALID,349,VALID,0.967578,
2007-07-01, 00:38:00,VALID,917.616,VALID,0,VALID,100,VALID,-0.0679233,VALID,20.0056,VALID,345,VALID,0.538281,
2007-07-01, 00:39:00,VALID,917.611,VALID,0,VALID,100,VALID,-0.0679233,VALID,20.0415,VALID,355,VALID,0.522852,
2007-07-01, 00:40:00,VALID,917.602,VALID,0,VALID,100,VALID,-0.0679233,VALID,20.0575,VALID,19,VALID,0.591025,
2007-07-01, 00:41:00,VALID,917.6,VALID,0,VALID,100,VALID,-0.0509425,VALID,20.0772,VALID,20,VALID,0.356076,
2007-07-01, 00:42:00,VALID,917.61,VALID,0,VALID,100,VALID,-0.0509425,VALID,20.0899,VALID,18,VALID,0.102896,
2007-07-01, 00:43:00,VALID,917.613,VALID,0,VALID,100,VALID,-0.0339617,VALID,20.1097,VALID,18,VALID,0.241642,
2007-07-01, 00:44:00,VALID,917.641,VALID,0,VALID,100,VALID,-0.0509425,VALID,20.1034,VALID,11,VALID,0.49256,
2007-07-01, 00:45:00,VALID,917.646,VALID,0,VALID,100,VALID,-0.118866,VALID,20.098,VALID,329,VALID,0.4504,
2007-07-01, 00:46:00,VALID,917.658,VALID,0,VALID,100,VALID,-0.118866,VALID,20.0977,VALID,297,VALID,0.26726,
2007-07-01, 00:47:00,VALID,917.669,VALID,0,VALID,100,VALID,-0.135847,VALID,20.1174,VALID,297,VALID,0.47526,
2007-07-01, 00:48:00,VALID,917.657,VALID,0,VALID,100,VALID,-0.118866,VALID,20.1137,VALID,1,VALID,0.723895,
2007-07-01, 00:49:00,VALID,917.663,VALID,0,VALID,100,VALID,-0.101885,VALID,20.1239,VALID,33,VALID,0.790587,
2007-07-01, 00:50:00,VALID,917.667,VALID,0,VALID,100,VALID,-0.118866,VALID,20.1234,VALID,33,VALID,0.475852,
2007-07-01, 00:51:00,VALID,917.656,VALID,0,VALID,100,VALID,-0.135847,VALID,20.1237,VALID,30,VALID,0.354167,
2007-07-01, 00:52:00,VALID,917.642,VALID,0,VALID,100,VALID,-0.152827,VALID,20.1274,VALID,17,VALID,0.538707,
2007-07-01, 00:53:00,VALID,917.64,VALID,0,VALID,100,VALID,-0.101885,VALID,20.0907,VALID,360,VALID,0.687666,
2007-07-01, 00:54:00,VALID,917.645,VALID,0,VALID,100,VALID,-0.186789,VALID,20.0852,VALID,359,VALID,0.361683,
2007-07-01, 00:55:00,VALID,917.644,VALID,0,VALID,100,VALID,-0.152827,VALID,20.1012,VALID,359,VALID,0.0145089,
2007-07-01, 00:56:00,VALID,917.639,VALID,0,VALID,100,VALID,-0.186789,VALID,20.1172,VALID,359,VALID,0.247396,
2007-07-01, 00:57:00,VALID,917.624,VALID,0,VALID,100,VALID,-0.152827,VALID,20.1172,VALID,359,VALID,0.200036,
2007-07-01, 00:58:00,VALID,917.628,VALID,0,VALID,100,VALID,-0.135847,VALID,20.1207,VALID,359,VALID,0.0152344,
2007-07-01, 00:59:00,VALID,917.61,VALID,0,VALID,100,VALID,-0.0849042,VALID,20.1326,VALID,359,VALID,0.0350654,
2007-07-01, 01:00:00,VALID,917.614,VALID,0,VALID,100,VALID,0,VALID,20.1374,VALID,359,VALID,0.21875,
2007-07-01, 01:01:00,VALID,917.597,VALID,0,VALID,100,VALID,0,VALID,20.1274,VALID,359,VALID,0.373785,
2007-07-01, 01:02:00,VALID,917.588,VALID,0,VALID,100,VALID,0.0509425,VALID,20.1141,VALID,360,VALID,0.335392,
2007-07-01, 01:03:00,VALID,917.586,VALID,0,VALID,100,VALID,0,VALID,20.1144,VALID,21,VALID,0.878906,
2007-07-01, 01:04:00,VALID,917.577,VALID,0,VALID,100,VALID,0.0509425,VALID,20.1339,VALID,23,VALID,0.686592,
2007-07-01, 01:05:00,VALID,917.581,VALID,0,VALID,100,VALID,0.0169808,VALID,20.1858,VALID,36,VALID,0.492746,
2007-07-01, 01:06:00,VALID,917.596,VALID,0,VALID,100,VALID,0,VALID,20.2217,VALID,36,VALID,0.273793,
2007-07-01, 01:07:00,VALID,917.599,VALID,0,VALID,99.9929,VALID,0.0169808,VALID,20.2507,VALID,36,VALID,0.018821,
2007-07-01, 01:08:00,VALID,917.581,VALID,0,VALID,99.8973,VALID,0.0169808,VALID,20.2769,VALID,29,VALID,0.158975,
2007-07-01, 01:09:00,VALID,917.574,VALID,0,VALID,99.6646,VALID,0.0169808,VALID,20.2834,VALID,20,VALID,0.361471,
2007-07-01, 01:10:00,VALID,917.571,VALID,0,VALID,99.5628,VALID,0.0169808,VALID,20.3186,VALID,20,VALID,0.278764,
2007-07-01, 01:11:00,VALID,917.567,VALID,0,VALID,99.3721,VALID,0,VALID,20.3221,VALID,20,VALID,0.336825,
2007-07-01, 01:12:00,VALID,917.558,VALID,0,VALID,99.2754,VALID,0.0339617,VALID,20.3353,VALID,21,VALID,0.383539,
2007-07-01, 01:13:00,VALID,917.571,VALID,0,VALID,99.236,VALID,0.0169808,VALID,20.348,VALID,22,VALID,0.131722,
2007-07-01, 01:14:00,VALID,917.571,VALID,0,VALID,99.1445,VALID,-0.0339617,VALID,20.365,VALID,22,VALID,0,
2007-07-01, 01:15:00,VALID,917.59,VALID,0,VALID,98.9423,VALID,-0.101885,VALID,20.3718,VALID,22,VALID,0.0196221,
2007-07-01, 01:16:00,VALID,917.565,VALID,0,VALID,98.8355,VALID,-0.0679233,VALID,20.3688,VALID,22,VALID,0.00272529,
2007-07-01, 01:17:00,VALID,917.557,VALID,0,VALID,98.7808,VALID,-0.0339617,VALID,20.372,VALID,22,VALID,0.0497533,
2007-07-01, 01:18:00,VALID,917.56,VALID,0,VALID,98.6829,VALID,-0.101885,VALID,20.3655,VALID,22,VALID,0.25,
2007-07-01, 01:19:00,VALID,917.552,VALID,0,VALID,98.646,VALID,-0.0849042,VALID,20.3531,VALID,22,VALID,0.219308,
2007-07-01, 01:20:00,VALID,917.536,VALID,0,VALID,98.6244,VALID,-0.0679233,VALID,20.3466,VALID,22,VALID,0,
2007-07-01, 01:21:00,VALID,917.53,VALID,0,VALID,98.5583,VALID,-0.0849042,VALID,20.3331,VALID,22,VALID,0,
2007-07-01, 01:22:00,VALID,917.52,VALID,0,VALID,98.557,VALID,-0.0679233,VALID,20.3463,VALID,22,VALID,0.0739462,
2007-07-01, 01:23:00,VALID,917.532,VALID,0,VALID,98.44,VALID,-0.101885,VALID,20.3561,VALID,22,VALID,0.0142912,
2007-07-01, 01:24:00,VALID,917.533,VALID,0,VALID,98.1742,VALID,-0.0679233,VALID,20.3266,VALID,22,VALID,0.142442,
2007-07-01, 01:25:00,VALID,917.521,VALID,0,VALID,98.3624,VALID,-0.101885,VALID,20.3106,VALID,22,VALID,0.406631,
2007-07-01, 01:26:00,VALID,917.501,VALID,0,VALID,98.4591,VALID,-0.0509425,VALID,20.2909,VALID,23,VALID,0.576527,
2007-07-01, 01:27:00,VALID,917.505,VALID,0,VALID,98.4082,VALID,-0.101885,VALID,20.2552,VALID,183,VALID,0.735305,
2007-07-01, 01:28:00,VALID,917.481,VALID,0,VALID,98.3802,VALID,-0.101885,VALID,20.2168,VALID,170,VALID,0.437137,
2007-07-01, 01:29:00,VALID,917.46,VALID,0,VALID,98.4642,VALID,-0.0509425,VALID,20.1576,VALID,108,VALID,0.228561,
2007-07-01, 01:30:00,VALID,917.441,VALID,0,VALID,98.4476,VALID,0,VALID,20.1114,VALID,51,VALID,0.22745,
2007-07-01, 01:31:00,VALID,917.43,VALID,0,VALID,98.4578,VALID,0,VALID,20.0527,VALID,51,VALID,0.283975,
2007-07-01, 01:32:00,VALID,917.41,VALID,0,VALID,98.6384,VALID,0.0339617,VALID,19.9978,VALID,51,VALID,0.26883,
2007-07-01, 01:33:00,VALID,917.408,VALID,0,VALID,98.894,VALID,0.0339617,VALID,19.9387,VALID,51,VALID,0.296684,
2007-07-01, 01:34:00,VALID,917.392,VALID,0,VALID,99.0834,VALID,0.0169808,VALID,19.8872,VALID,51,VALID,0.134943,
2007-07-01, 01:35:00,VALID,917.376,VALID,0,VALID,99.1724,VALID,0,VALID,19.8386,VALID,109,VALID,0.610677,
2007-07-01, 01:36:00,VALID,917.371,VALID,0,VALID,99.2411,VALID,-0.0169808,VALID,19.7934,VALID,149,VALID,0.504179,
2007-07-01, 01:37:00,VALID,917.367,VALID,0,VALID,99.4585,VALID,0,VALID,19.7417,VALID,164,VALID,0.96503,
2007-07-01, 01:38:00,VALID,917.359,VALID,0,VALID,99.62,VALID,0,VALID,19.6896,VALID,171,VALID,0.762718,
2007-07-01, 01:39:00,VALID,917.336,VALID,0,VALID,99.8337,VALID,0,VALID,19.6312,VALID,171,VALID,0.643415,
2007-07-01, 01:40:00,VALID,917.308,VALID,0,VALID,99.9952,VALID,0,VALID,19.5725,VALID,163,VALID,0.516197,
2007-07-01, 01:41:00,VALID,917.277,VALID,0,VALID,100,VALID,0.0169808,VALID,19.5241,VALID,163,VALID,0.410342,
2007-07-01, 01:42:00,VALID,917.269,VALID,0,VALID,100,VALID,0,VALID,19.4787,VALID,163,VALID,0.335938,
2007-07-01, 01:43:00,VALID,917.239,VALID,0,VALID,100,VALID,0,VALID,19.4627,VALID,163,VALID,0.208079,
2007-07-01, 01:44:00,VALID,917.221,VALID,0,VALID,100,VALID,0.0169808,VALID,19.4071,VALID,163,VALID,0.00297619,
2007-07-01, 01:45:00,VALID,917.219,VALID,0,VALID,100,VALID,0,VALID,19.3227,VALID,163,VALID,0,
2007-07-01, 01:46:00,VALID,917.22,VALID,0,VALID,100,VALID,0.0169808,VALID,19.297,VALID,163,VALID,0,
2007-07-01, 01:47:00,VALID,917.214,VALID,0,VALID,100,VALID,0.0169808,VALID,19.2775,VALID,163,VALID,0,
2007-07-01, 01:48:00,VALID,917.209,VALID,0,VALID,100,VALID,0.0169808,VALID,19.2513,VALID,163,VALID,0,
2007-07-01, 01:49:00,VALID,917.198,VALID,0,VALID,100,VALID,-0.0169808,VALID,19.2449,VALID,163,VALID,0,
2007-07-01, 01:50:00,VALID,917.179,VALID,0,VALID,100,VALID,0,VALID,19.2481,VALID,163,VALID,0,
2007-07-01, 01:51:00,VALID,917.169,VALID,0,VALID,100,VALID,-0.0169808,VALID,19.2578,VALID,163,VALID,0,
2007-07-01, 01:52:00,VALID,917.152,VALID,0,VALID,100,VALID,0.0169808,VALID,19.2805,VALID,163,VALID,0.00121528,
2007-07-01, 01:53:00,VALID,917.139,VALID,0,VALID,100,VALID,0,VALID,19.2643,VALID,163,VALID,0,
2007-07-01, 01:54:00,VALID,917.111,VALID,0,VALID,100,VALID,0,VALID,19.2935,VALID,163,VALID,0.0531994,
2007-07-01, 01:55:00,VALID,917.096,VALID,0,VALID,100,VALID,0.0339617,VALID,19.3422,VALID,163,VALID,0,
2007-07-01, 01:56:00,VALID,917.067,VALID,0,VALID,100,VALID,0,VALID,19.3582,VALID,163,VALID,0,
2007-07-01, 01:57:00,VALID,917.051,VALID,0,VALID,100,VALID,0.0169808,VALID,19.3517,VALID,163,VALID,0,
2007-07-01, 01:58:00,VALID,917.036,VALID,0,VALID,99.428,VALID,0.0169808,VALID,19.2351,VALID,163,VALID,0,
2007-07-01, 01:59:00,VALID,917.032,VALID,0,VALID,98.8673,VALID,0.0169808,VALID,19.0857,VALID,163,VALID,0.214258,
2007-07-01, 02:00:00,VALID,917.021,VALID,0,VALID,98.9474,VALID,0,VALID,19.0016,VALID,163,VALID,0.17081,
2007-07-01, 02:01:00,VALID,917.019,VALID,0,VALID,99.1139,VALID,0.0169808,VALID,18.9265,VALID,163,VALID,0.103468,
2007-07-01, 02:02:00,VALID,917.02,VALID,0,VALID,99.4001,VALID,0.0509425,VALID,18.8978,VALID,163,VALID,0,
2007-07-01, 02:03:00,VALID,917.044,VALID,0,VALID,99.6239,VALID,0.0339617,VALID,18.8815,VALID,163,VALID,0,
2007-07-01, 02:04:00,VALID,917.051,VALID,0,VALID,99.9049,VALID,0.0169808,VALID,18.8778,VALID,163,VALID,0,
2007-07-01, 02:05:00,VALID,917.049,VALID,0,VALID,99.854,VALID,0,VALID,18.8815,VALID,163,VALID,0,
2007-07-01, 02:06:00,VALID,917.059,VALID,0,VALID,99.3568,VALID,0.0169808,VALID,18.7865,VALID,163,VALID,0.0100446,
2007-07-01, 02:07:00,VALID,917.055,VALID,0,VALID,99.1025,VALID,0.0339617,VALID,18.7122,VALID,163,VALID,0.0649771,
2007-07-01, 02:08:00,VALID,917.043,VALID,0,VALID,99.4318,VALID,0.0169808,VALID,18.6992,VALID,163,VALID,0.0482088,
2007-07-01, 02:09:00,VALID,917.035,VALID,0,VALID,99.6353,VALID,0.0169808,VALID,18.6834,VALID,163,VALID,0,
2007-07-01, 02:10:00,VALID,917.044,VALID,0,VALID,100,VALID,-0.0169808,VALID,18.7064,VALID,163,VALID,0,
2007-07-01, 02:11:00,VALID,917.04,VALID,0,VALID,100,VALID,0.0169808,VALID,18.7154,VALID,163,VALID,0,
2007-07-01, 02:12:00,VALID,917.046,VALID,0,VALID,100,VALID,-0.0169808,VALID,18.7219,VALID,163,VALID,0.396019,
2007-07-01, 02:13:00,VALID,917.062,VALID,0,VALID,99.999,VALID,0.0169808,VALID,18.6542,VALID,175,VALID,0.83724,
2007-07-01, 02:14:00,VALID,917.06,VALID,0,VALID,100,VALID,-0.0169808,VALID,18.6019,VALID,175,VALID,0.657484,
2007-07-01, 02:15:00,VALID,917.063,VALID,0,VALID,100,VALID,-0.0679233,VALID,18.6128,VALID,173,VALID,0.523819,
2007-07-01, 02:16:00,VALID,917.044,VALID,0,VALID,100,VALID,-0.0679233,VALID,18.6068,VALID,172,VALID,0.354106,
2007-07-01, 02:17:00,VALID,917.031,VALID,0,VALID,100,VALID,-0.0679233,VALID,18.5838,VALID,171,VALID,0.160417,
2007-07-01, 02:18:00,VALID,917.013,VALID,0,VALID,100,VALID,-0.0509425,VALID,18.5514,VALID,171,VALID,0.377404,
2007-07-01, 02:19:00,VALID,916.993,VALID,0,VALID,100,VALID,-0.0679233,VALID,18.5349,VALID,171,VALID,0.225419,
2007-07-01, 02:20:00,VALID,916.985,VALID,0,VALID,100,VALID,-0.0509425,VALID,18.5377,VALID,171,VALID,0.00342988,
2007-07-01, 02:21:00,VALID,916.978,VALID,0,VALID,100,VALID,-0.101885,VALID,18.5289,VALID,171,VALID,0,
2007-07-01, 02:22:00,VALID,916.962,VALID,0,VALID,100,VALID,-0.0509425,VALID,18.5187,VALID,171,VALID,0,
2007-07-01, 02:23:00,VALID,916.944,VALID,0,VALID,100,VALID,-0.0679233,VALID,18.4634,VALID,171,VALID,0,
2007-07-01, 02:24:00,VALID,916.933,VALID,0,VALID,100,VALID,-0.0169808,VALID,18.3698,VALID,171,VALID,0.263808,
2007-07-01, 02:25:00,VALID,916.915,VALID,0,VALID,100,VALID,-0.0509425,VALID,18.3016,VALID,107,VALID,0.719105,
2007-07-01, 02:26:00,VALID,916.904,VALID,0,VALID,100,VALID,-0.0679233,VALID,18.392,VALID,91,VALID,0.709413,
2007-07-01, 02:27:00,VALID,916.898,VALID,0,VALID,100,VALID,-0.0509425,VALID,18.4768,VALID,91,VALID,0.700994,
2007-07-01, 02:28:00,VALID,916.884,VALID,0,VALID,100,VALID,-0.0339617,VALID,18.506,VALID,91,VALID,0.604288,
2007-07-01, 02:29:00,VALID,916.865,VALID,0,VALID,100,VALID,-0.0679233,VALID,18.4735,VALID,91,VALID,0.531068,
2007-07-01, 02:30:00,VALID,916.853,VALID,0,VALID,100,VALID,-0.0849042,VALID,18.4798,VALID,91,VALID,0.480556,
2007-07-01, 02:31:00,VALID,916.831,VALID,0,VALID,100,VALID,-0.118866,VALID,18.5092,VALID,93,VALID,0.635476,
2007-07-01, 02:32:00,VALID,916.812,VALID,0,VALID,100,VALID,-0.101885,VALID,18.5419,VALID,106,VALID,0.738554,
2007-07-01, 02:33:00,VALID,916.806,VALID,0,VALID,100,VALID,-0.0679233,VALID,18.5576,VALID,118,VALID,0.887091,
2007-07-01, 02:34:00,VALID,916.804,VALID,0,VALID,100,VALID,-0.0509425,VALID,18.5639,VALID,135,VALID,0.57758,
2007-07-01, 02:35:00,VALID,916.815,VALID,0,VALID,100,VALID,-0.101885,VALID,18.5609,VALID,138,VALID,0.293605,
2007-07-01, 02:36:00,VALID,916.821,VALID,0,VALID,100,VALID,-0.101885,VALID,18.5419,VALID,138,VALID,0.434261,
2007-07-01, 02:37:00,VALID,916.821,VALID,0,VALID,100,VALID,-0.0849042,VALID,18.5057,VALID,138,VALID,0.502287,
2007-07-01, 02:38:00,VALID,916.824,VALID,0,VALID,100,VALID,-0.0849042,VALID,18.4995,VALID,138,VALID,0.538154,
2007-07-01, 02:39:00,VALID,916.829,VALID,0,VALID,100,VALID,-0.0339617,VALID,18.4735,VALID,138,VALID,0.542067,
2007-07-01, 02:40:00,VALID,916.84,VALID,0,VALID,100,VALID,-0.101885,VALID,18.4506,VALID,138,VALID,0.611852,
2007-07-01, 02:41:00,VALID,916.843,VALID,0,VALID,100,VALID,-0.0509425,VALID,18.4666,VALID,138,VALID,0.58631,
2007-07-01, 02:42:00,VALID,916.854,VALID,0,VALID,100,VALID,-0.0339617,VALID,18.5025,VALID,138,VALID,0.542882,
2007-07-01, 02:43:00,VALID,916.868,VALID,0,VALID,100,VALID,-0.0679233,VALID,18.5152,VALID,138,VALID,0.246003,
2007-07-01, 02:44:00,VALID,916.879,VALID,0,VALID,100,VALID,-0.0339617,VALID,18.5185,VALID,138,VALID,0.220117,
2007-07-01, 02:45:00,VALID,916.861,VALID,0,VALID,100,VALID,-0.101885,VALID,18.5349,VALID,138,VALID,0.195122,
2007-07-01, 02:46:00,VALID,916.853,VALID,0,VALID,100,VALID,-0.0509425,VALID,18.5185,VALID,138,VALID,0,
2007-07-01, 02:47:00,VALID,916.841,VALID,0,VALID,100,VALID,-0.101885,VALID,18.509,VALID,138,VALID,0,
2007-07-01, 02:48:00,VALID,916.828,VALID,0,VALID,100,VALID,-0.0679233,VALID,18.499,VALID,138,VALID,0,
2007-07-01, 02:49:00,VALID,916.803,VALID,0,VALID,100,VALID,-0.101885,VALID,18.5088,VALID,138,VALID,0,
2007-07-01, 02:50:00,VALID,916.805,VALID,0,VALID,100,VALID,-0.0339617,VALID,18.5315,VALID,138,VALID,0,
2007-07-01, 02:51:00,VALID,916.807,VALID,0,VALID,100,VALID,-0.0849042,VALID,18.5549,VALID,138,VALID,0,
2007-07-01, 02:52:00,VALID,916.794,VALID,0,VALID,100,VALID,-0.0849042,VALID,18.5873,VALID,138,VALID,0,
2007-07-01, 02:53:00,VALID,916.783,VALID,0,VALID,100,VALID,-0.0849042,VALID,18.6167,VALID,138,VALID,0,
2007-07-01, 02:54:00,VALID,916.769,VALID,0,VALID,100,VALID,-0.0849042,VALID,18.616,VALID,138,VALID,0,
2007-07-01, 02:55:00,VALID,916.77,VALID,0,VALID,100,VALID,-0.0849042,VALID,18.6125,VALID,138,VALID,0,
2007-07-01, 02:56:00,VALID,916.767,VALID,0,VALID,100,VALID,-0.101885,VALID,18.619,VALID,138,VALID,0,
2007-07-01, 02:57:00,VALID,916.771,VALID,0,VALID,100,VALID,-0.0679233,VALID,18.5933,VALID,138,VALID,0,
2007-07-01, 02:58:00,VALID,916.782,VALID,0,VALID,100,VALID,-0.101885,VALID,18.5447,VALID,138,VALID,0,
2007-07-01, 02:59:00,VALID,916.77,VALID,0,VALID,100,VALID,-0.101885,VALID,18.5449,VALID,138,VALID,0,
2007-07-01, 03:00:00,VALID,916.762,VALID,0,VALID,100,VALID,-0.0339617,VALID,18.5477,VALID,138,VALID,0.0472301,
2007-07-01, 03:01:00,VALID,916.741,VALID,0,VALID,100,VALID,-0.0679233,VALID,18.538,VALID,138,VALID,0.212984,
2007-07-01, 03:02:00,VALID,916.745,VALID,0,VALID,100,VALID,-0.0509425,VALID,18.512,VALID,138,VALID,0.306402,
2007-07-01, 03:03:00,VALID,916.754,VALID,0,VALID,100,VALID,-0.0679233,VALID,18.5023,VALID,138,VALID,0.227706,
2007-07-01, 03:04:00,VALID,916.757,VALID,0,VALID,100,VALID,-0.0169808,VALID,18.4504,VALID,138,VALID,0.270486,
2007-07-01, 03:05:00,VALID,916.776,VALID,0,VALID,100,VALID,-0.0849042,VALID,18.3952,VALID,138,VALID,0.371652,
2007-07-01, 03:06:00,VALID,916.783,VALID,0,VALID,100,VALID,-0.0509425,VALID,18.3985,VALID,138,VALID,0.343928,
2007-07-01, 03:07:00,VALID,916.76,VALID,0,VALID,100,VALID,-0.0509425,VALID,18.3883,VALID,138,VALID,0.19077,
2007-07-01, 03:08:00,VALID,916.741,VALID,0,VALID,100,VALID,-0.0339617,VALID,18.405,VALID,138,VALID,0,
2007-07-01, 03:09:00,VALID,916.732,VALID,0,VALID,100,VALID,-0.0509425,VALID,18.379,VALID,138,VALID,0.314174,
2007-07-01, 03:10:00,VALID,916.721,VALID,0,VALID,100,VALID,-0.101885,VALID,18.3663,VALID,134,VALID,0.509993,
2007-07-01, 03:11:00,VALID,916.728,VALID,0,VALID,100,VALID,-0.0339617,VALID,18.3436,VALID,105,VALID,0.58339,
2007-07-01, 03:12:00,VALID,916.747,VALID,0,VALID,100,VALID,-0.101885,VALID,18.4796,VALID,104,VALID,0.466273,
2007-07-01, 03:13:00,VALID,916.773,VALID,0,VALID,100,VALID,-0.101885,VALID,18.5382,VALID,104,VALID,0.186384,
2007-07-01, 03:14:00,VALID,916.787,VALID,0,VALID,100,VALID,-0.0339617,VALID,18.5215,VALID,104,VALID,0.304129,
2007-07-01, 03:15:00,VALID,916.778,VALID,0,VALID,100,VALID,0,VALID,18.5006,VALID,104,VALID,0.447222,
2007-07-01, 03:16:00,VALID,916.782,VALID,0,VALID,100,VALID,0.0339617,VALID,18.3512,VALID,104,VALID,0.403587,
2007-07-01, 03:17:00,VALID,916.8,VALID,0,VALID,100,VALID,0.0509425,VALID,18.1995,VALID,104,VALID,0.265439,
2007-07-01, 03:18:00,VALID,916.814,VALID,0,VALID,100,VALID,0,VALID,18.1576,VALID,104,VALID,0.158975,
2007-07-01, 03:19:00,VALID,916.823,VALID,0,VALID,100,VALID,0.0509425,VALID,18.1895,VALID,104,VALID,0.369792,
2007-07-01, 03:20:00,VALID,916.818,VALID,0,VALID,100,VALID,0.0509425,VALID,18.2349,VALID,104,VALID,0.434375,
2007-07-01, 03:21:00,VALID,916.828,VALID,0,VALID,100,VALID,0,VALID,18.2384,VALID,104,VALID,0.36814,
2007-07-01, 03:22:00,VALID,916.821,VALID,0,VALID,100,VALID,0.0509425,VALID,18.2252,VALID,104,VALID,0.361285,
2007-07-01, 03:23:00,VALID,916.789,VALID,0,VALID,100,VALID,0.0339617,VALID,18.2414,VALID,114,VALID,0.519055,
2007-07-01, 03:24:00,VALID,916.766,VALID,0,VALID,100,VALID,0.0169808,VALID,18.2576,VALID,136,VALID,0.610283,
2007-07-01, 03:25:00,VALID,916.753,VALID,0,VALID,100,VALID,0.0509425,VALID,18.2706,VALID,136,VALID,0.524805,
2007-07-01, 03:26:00,VALID,916.742,VALID,0,VALID,100,VALID,0.0509425,VALID,18.2613,VALID,137,VALID,0.616461,
2007-07-01, 03:27:00,VALID,916.743,VALID,0,VALID,100,VALID,0.0509425,VALID,18.2148,VALID,138,VALID,0.476199,
2007-07-01, 03:28:00,VALID,916.74,VALID,0,VALID,100,VALID,0,VALID,18.209,VALID,138,VALID,0.632292,
2007-07-01, 03:29:00,VALID,916.738,VALID,0,VALID,100,VALID,-0.0339617,VALID,18.2324,VALID,138,VALID,0.670785,
2007-07-01, 03:30:00,VALID,916.732,VALID,0,VALID,100,VALID,-0.0339617,VALID,18.2231,VALID,139,VALID,0.750191,
2007-07-01, 03:31:00,VALID,916.731,VALID,0,VALID,100,VALID,-0.0339617,VALID,18.2625,VALID,142,VALID,0.70512,
2007-07-01, 03:32:00,VALID,916.723,VALID,0,VALID,100,VALID,-0.0169808,VALID,18.2685,VALID,142,VALID,0.608008,
2007-07-01, 03:33:00,VALID,916.734,VALID,0,VALID,100,VALID,-0.0339617,VALID,18.2713,VALID,145,VALID,0.797238,
2007-07-01, 03:34:00,VALID,916.742,VALID,0,VALID,100,VALID,-0.0169808,VALID,18.2748,VALID,145,VALID,1.02707,
2007-07-01, 03:35:00,VALID,916.734,VALID,0,VALID,100,VALID,0,VALID,18.2803,VALID,142,VALID,0.880907,
2007-07-01, 03:36:00,VALID,916.739,VALID,0,VALID,100,VALID,0.0339617,VALID,18.2741,VALID,144,VALID,0.781994,
2007-07-01, 03:37:00,VALID,916.719,VALID,0,VALID,100,VALID,-0.0339617,VALID,18.2685,VALID,138,VALID,1.00515,
2007-07-01, 03:38:00,VALID,916.714,VALID,0,VALID,100,VALID,-0.0339617,VALID,18.272,VALID,129,VALID,0.932173,